Date String (YYYY-MM-DD hh:mm:ss) UTC,Instrument flags,Ambient pressure (hPa),Sample flow (lpm),Bypass flow (lpm),Sample temperature (°C),Ambient temperature (°C),ASC tube jacket temperature (°C),LED temperature (°C),Box temperature (°C),Sample RH (%),Span deviation,Mass concentration (μg/m³),Mass concentration (μg/m³),Mass concentration (μg/m³)
DateTimeUTC,F1_M11,P_M11,Q1_M11,Q2_M11,T1_M11,T2_M11,T3_M11,T4_M11,T5_M11,U1_M11,ZSPAN_M11,X2_M11,X0_M11,X1_M11
2022-09-17 10:00:00,,0824.4,5.00,0.00,30.6,29.2,00.0,39.3,32.4,20.3,0000.0,0004.30,0009.78,0003.85
2022-09-17 10:01:00,,0824.4,5.01,0.00,30.6,29.2,00.0,39.3,32.4,20.2,0000.0,0004.30,0009.85,0003.87
2022-09-17 10:02:00,,0824.4,4.99,0.00,30.6,29.2,00.0,39.3,32.4,20.3,0000.0,0004.29,0009.36,0003.89
2022-09-17 10:03:00,,0824.4,5.01,0.00,30.6,29.2,00.0,39.3,32.4,20.1,0000.0,0004.29,0008.90,0003.88
2022-09-17 10:04:00,,0824.4,5.00,0.00,30.6,29.2,00.0,39.3,32.4,19.9,0000.0,0004.27,0008.10,0003.86
2022-09-17 10:05:00,,0824.4,5.01,0.00,30.6,29.2,00.0,39.3,32.4,20.0,0000.0,0004.29,0008.33,0003.83
2022-09-17 10:06:00,,0824.5,4.99,0.00,30.6,29.2,00.0,39.4,32.4,19.8,0000.0,0004.30,0008.75,0003.81
2022-09-17 10:07:00,,0824.6,5.01,0.00,30.6,29.2,00.0,39.4,32.4,20.1,0000.0,0004.28,0008.76,0003.82
2022-09-17 10:08:00,,0824.6,4.99,0.00,30.6,29.2,00.0,39.4,32.4,20.5,0000.0,0004.32,0009.23,0003.83
2022-09-17 10:09:00,,0824.5,5.00,0.00,30.6,29.2,00.0,39.4,32.4,20.9,0000.0,0004.37,0009.18,0003.85
2022-09-17 10:10:00,,0824.7,5.00,0.00,30.6,29.2,00.0,39.4,32.4,21.2,0000.0,0004.43,0009.17,0003.87
2022-09-17 10:11:00,,0824.7,4.99,0.00,30.6,29.3,00.0,39.4,32.4,21.1,0000.0,0004.45,0009.49,0003.87
2022-09-17 10:12:00,,0824.9,5.01,0.00,30.6,29.2,00.0,39.4,32.4,20.9,0000.0,0004.45,0010.30,0003.86
2022-09-17 10:13:00,,0824.6,4.99,0.00,30.7,29.3,00.0,39.4,32.4,20.8,0000.0,0004.45,0010.61,0003.83
2022-09-17 10:14:00,,0824.6,5.01,0.00,30.7,29.3,00.0,39.4,32.5,20.6,0000.0,0004.45,0011.42,0003.80
2022-09-17 10:15:00,,0824.7,4.99,0.00,30.7,29.3,00.0,39.4,32.5,20.5,0000.0,0004.54,0012.05,0003.78
2022-09-17 10:16:00,,0824.6,5.00,0.00,30.7,29.3,00.0,39.4,32.5,20.4,0000.0,0004.57,0012.12,0003.77
2022-09-17 10:17:00,,0824.7,5.00,0.00,30.7,29.2,00.0,39.4,32.5,20.3,0000.0,0004.60,0012.17,0003.76
2022-09-17 10:18:00,,0824.7,4.98,0.00,30.7,29.2,00.0,39.4,32.5,20.2,0000.0,0004.66,0012.54,0003.73
2022-09-17 10:19:00,,0824.7,5.01,0.00,30.7,29.2,00.0,39.5,32.5,20.1,0000.0,0004.65,0012.34,0003.69
2022-09-17 10:20:00,,0824.8,4.99,0.00,30.7,29.2,00.0,39.5,32.5,20.0,0000.0,0004.61,0012.31,0003.65
2022-09-17 10:21:00,,0824.8,4.99,0.00,30.7,29.2,00.0,39.5,32.5,19.9,0000.0,0004.55,0012.22,0003.59
2022-09-17 10:22:00,,0824.8,5.00,0.00,30.7,29.2,00.0,39.5,32.5,19.9,0000.0,0004.54,0012.01,0003.55
2022-09-17 10:23:00,,0824.8,5.00,0.00,30.7,29.3,00.0,39.5,32.5,20.0,0000.0,0004.53,0011.07,0003.53
2022-09-17 10:24:00,,0824.8,5.00,0.00,30.7,29.2,00.0,39.5,32.5,20.0,0000.0,0004.49,0011.26,0003.50
2022-09-17 10:25:00,,0824.8,5.01,0.00,30.7,29.2,00.0,39.5,32.5,19.9,0000.0,0004.48,0010.82,0003.46
2022-09-17 10:26:00,,0824.8,5.00,0.00,30.7,29.2,00.0,39.5,32.4,19.8,0000.0,0004.35,0010.32,0003.43
2022-09-17 10:27:00,,0824.9,5.00,0.00,30.7,29.2,00.0,39.5,32.5,19.8,0000.0,0004.23,0010.19,0003.41
2022-09-17 10:28:00,,0824.8,5.01,0.00,30.7,29.3,00.0,39.5,32.5,19.7,0000.0,0004.16,0011.18,0003.39
2022-09-17 10:29:00,,0824.8,4.99,0.00,30.7,29.3,00.0,39.5,32.5,19.6,0000.0,0004.09,0011.55,0003.38
2022-09-17 10:30:00,,0824.8,5.01,0.00,30.7,29.3,00.0,39.5,32.5,19.7,0000.0,0004.07,0011.70,0003.39
2022-09-17 10:31:00,,0824.9,4.99,0.00,30.7,29.3,00.0,39.5,32.5,19.8,0000.0,0004.06,0012.06,0003.40
2022-09-17 10:32:00,,0824.9,5.01,0.00,30.7,29.3,00.0,39.5,32.5,19.8,0000.0,0004.03,0012.03,0003.40
2022-09-17 10:33:00,,0824.9,5.01,0.00,30.7,29.3,00.0,39.5,32.5,19.8,0000.0,0003.99,0012.01,0003.41
2022-09-17 10:34:00,,0824.8,4.99,0.00,30.7,29.3,00.0,39.5,32.5,19.9,0000.0,0004.02,0012.02,0003.42
2022-09-17 10:35:00,,0824.8,5.01,0.00,30.8,29.3,00.0,39.5,32.5,19.8,0000.0,0004.04,0011.59,0003.44
2022-09-17 10:36:00,,0824.8,5.00,0.00,30.8,29.3,00.0,39.5,32.5,19.7,0000.0,0004.01,0011.51,0003.45
2022-09-17 10:37:00,,0824.8,4.99,0.00,30.8,29.3,00.0,39.5,32.5,19.6,0000.0,0004.04,0011.69,0003.46
2022-09-17 10:38:00,,0824.8,5.01,0.00,30.8,29.3,00.0,39.6,32.5,19.7,0000.0,0004.07,0012.04,0003.48
2022-09-17 10:39:00,,0824.8,4.99,0.00,30.8,29.3,00.0,39.6,32.5,19.8,0000.0,0004.13,0010.76,0003.49
2022-09-17 10:40:00,,0824.8,5.01,0.00,30.8,29.3,00.0,39.6,32.5,19.7,0000.0,0004.18,0010.39,0003.50
2022-09-17 10:41:00,,0824.8,5.00,0.00,30.8,29.3,00.0,39.6,32.5,19.6,0000.0,0004.22,0010.89,0003.51
2022-09-17 10:42:00,,0824.9,5.00,0.00,30.8,29.3,00.0,39.6,32.5,19.6,0000.0,0004.26,0010.66,0003.52
2022-09-17 10:43:00,,0824.9,5.01,0.00,30.8,29.3,00.0,39.6,32.5,19.5,0000.0,0004.31,0010.75,0003.52
2022-09-17 10:44:00,,0824.9,5.00,0.00,30.8,29.3,00.0,39.6,32.5,19.5,0000.0,0004.31,0010.56,0003.54
2022-09-17 10:45:00,,0824.9,5.01,0.00,30.8,29.3,00.0,39.6,32.6,19.5,0000.0,0004.28,0010.81,0003.54
2022-09-17 10:46:00,,0824.9,4.99,0.00,30.8,29.3,00.0,39.6,32.5,19.6,0000.0,0004.30,0011.50,0003.55
2022-09-17 10:47:00,,0824.9,5.01,0.00,30.8,29.3,00.0,39.6,32.6,19.5,0000.0,0004.38,0011.54,0003.58
2022-09-17 10:48:00,,0824.8,5.00,0.00,30.8,29.3,00.0,39.6,32.5,19.3,0000.0,0004.46,0012.64,0003.59
2022-09-17 10:49:00,,0824.8,4.99,0.00,30.8,29.3,00.0,39.6,32.5,19.4,0000.0,0004.48,0012.88,0003.59
2022-09-17 10:50:00,,0824.9,5.01,0.00,30.8,29.3,00.0,39.6,32.5,19.5,0000.0,0004.52,0013.48,0003.61
2022-09-17 10:51:00,,0824.9,5.00,0.00,30.8,29.3,00.0,39.6,32.6,19.6,0000.0,0004.53,0013.77,0003.63
2022-09-17 10:52:00,,0824.9,5.00,0.00,30.8,29.4,00.0,39.6,32.6,19.6,0000.0,0004.57,0013.19,0003.65
2022-09-17 10:53:00,,0824.9,5.00,0.00,30.8,29.4,00.0,39.6,32.6,19.7,0000.0,0004.61,0013.14,0003.67
2022-09-17 10:54:00,,0824.9,4.99,0.00,30.8,29.3,00.0,39.6,32.6,19.7,0000.0,0004.64,0013.38,0003.70
2022-09-17 10:55:00,,0824.9,5.00,0.00,30.8,29.3,00.0,39.6,32.6,19.5,0000.0,0004.67,0013.42,0003.71
2022-09-17 10:56:00,,0824.9,5.01,0.00,30.8,29.4,00.0,39.6,32.6,19.5,0000.0,0004.75,0014.34,0003.72
2022-09-17 10:57:00,,0824.9,4.99,0.00,30.8,29.4,00.0,39.6,32.6,19.6,0000.0,0004.77,0015.19,0003.75
2022-09-17 10:58:00,,0824.9,5.00,0.00,30.8,29.3,00.0,39.6,32.6,19.6,0000.0,0004.80,0014.88,0003.77
2022-09-17 10:59:00,,0824.9,5.01,0.00,30.8,29.3,00.0,39.6,32.6,19.7,0000.0,0004.78,0014.66,0003.81
